Skip Page Navigation
NASA JPL Caltech
NASA Logo - Jet Propulsion Laboratory + View the NASA Portal
+ Center for Near-Earth Object Studies
JPL Home Earth Solar System Stars & Galaxies Technology
JPL Solar System Dynamics
BODIES ORBITS EPHEMERIDES TOOLS PHYSICAL DATA DISCOVERY FAQ SITE MAP
JPL Small-Body Database Browser
Search: [ help ]  
227735 (2006 FL16)
Classification: Main-belt Asteroid          SPK-ID: 2227735
Ephemeris | Orbit Diagram | Orbital Elements | Mission Design | Physical Parameters | Discovery Circumstances | Close-Approach Data ]

[ show orbit diagram ]
Orbital Elements at Epoch 2459200.5 (2020-Dec-17.0) TDB
Reference: JPL 21 (heliocentric ecliptic J2000)
 Element Value Uncertainty (1-sigma)   Units 
e .05446550547081041 4.6406e-08  
a 3.005954890986767 2.342e-08 au
q 2.842234038426718 1.4534e-07 au
i 2.598820977394899 4.5387e-06 deg
node 210.0945351859179 0.00010732 deg
peri 267.9191603313403 0.00011853 deg
M .1874749050018281 4.7612e-05 deg
tp 2459199.508682536754
(2020-Dec-16.00868254)
0.00025176 TDB
period 1903.58430513647
5.21
2.2247e-05
6.091e-08
d
yr
n .1891169196071887 2.2102e-09 deg/d
Q 3.169675743546815 2.4696e-08 au
  Orbit Determination Parameters
   # obs. used (total)      382  
   data-arc span      9515 days (26.05 yr)  
   first obs. used      1995-02-01  
   last obs. used      2021-02-19  
   planetary ephem.      DE441  
   SB-pert. ephem.      SB441-N16  
   condition code      0  
   norm. resid. RMS      .5083  
   source      ORB  
   producer      Otto Matic  
   solution date      2021-Apr-14 00:40:57  

Additional Information
 Earth MOID = 1.85982 au 
 Jupiter MOID = 1.87848 au 
 T_jup = 3.247 
[ show covariance matrix ]

Ephemeris | Orbit Diagram | Orbital Elements | Mission Design | Physical Parameters | Discovery Circumstances | Close-Approach Data ]

Physical Parameter Table
Parameter Symbol Value Units Sigma Reference Notes
absolute magnitude H 15.7   n/a MPO454637  

227735 (2006 FL16)          Discovered 2006-Mar-23 by Mt. Lemmon Survey at Mount Lemmon
Reference: 20091202/Numbers.arcLast Updated: 2009-12-04

[ show close-approach data ]
Ephemeris | Orbit Diagram | Orbital Elements | Mission Design | Physical Parameters | Discovery Circumstances | Close-Approach Data ]
ABOUT SSD CREDITS/AWARDS PRIVACY/COPYRIGHT GLOSSARY LINKS
FirstGov 2021-Apr-18 16:01 UT
(server date/time)  
NASA Home Page
Site Manager:   Ryan S. Park
Webmaster  Alan B. Chamberlin